Regional Weather Roundup
Issued by NWS

Home | Current Version | Previous Version | Graphics & Text | Print | Product List | Glossary On
Versions: 1 2 3 4 5 6 7 8 9 10 11 12 13 14 15 16 17 18 19 20 21 22 23 24 25 26 27 28 29 30 31 32 33 34 35 36 37 38 39 40 41 42 43 44 45 46 47 48 49 50
867
ASUS43 KDMX 221501
RWRIA

WEATHER ROUNDUP FOR IOWA
NATIONAL WEATHER SERVICE DES MOINES IA
900 AM CST WED NOV 22 2017

NOTE: "FAIR" INDICATES FEW OR NO CLOUDS BELOW 12,000 FEET WITH NO
SIGNIFICANT WEATHER AND/OR OBSTRUCTIONS TO VISIBILITY.

* - THESE STATIONS ARE NOT NWS STATIONS...THUS NOT UNDER NWS
QUALITY CONTROL.  THEY ALSO DO NOT REPORT WEATHER SUCH
AS PRECIPITATION OR FOG.

IAZ001>003-012>014-020>022-031>034-043>046-221600-
   NORTHWEST IOWA

CITY           SKY/WX    TMP DP  RH WIND       PRES   REMARKS
CARROLL *      SUNNY     19  12  73 SW8       30.37S WCI   9
CHEROKEE *     CLOUDY    18  13  80 S7        30.32F WCI   8
DENISON *      CLOUDY    19  12  73 S6        30.37F WCI  11
LE MARS *      SUNNY     19  14  79 S8        30.32S WCI   9
ORANGE CITY *  CLOUDY    18  14  86 S8        30.29S WCI   7
SHELDON *      CLOUDY    18  10  73 S8        30.28S WCI   7
SIOUX CITY     CLOUDY    17  13  84 SE6       30.34F WCI   9
SPENCER        CLOUDY    19  12  74 S10       30.31F WCI   7
STORM LAKE *   CLOUDY    19  12  73 S9        30.31F WCI   9
$$

IAZ055>058-069>071-079>083-090>094-221600-
   SOUTHWEST IOWA

CITY           SKY/WX    TMP DP  RH WIND       PRES   REMARKS
ATLANTIC *     CLOUDY    19  14  79 S5        30.39F WCI  13
AUDUBON *      SUNNY     19  16  86 S6        30.36F WCI  11
CLARINDA *     CLOUDY    19  18  93 CALM      30.44
COUNCIL BLFS * SUNNY     19  18  93 S8        30.37F WCI   9
CRESTON *      CLOUDY    21  14  73 SW3       30.41R
HARLAN  *      CLOUDY    18  16  93 S6        30.41F WCI   9
RED OAK *      CLOUDY    19  16  86 S5        30.41F WCI  13
SHENANDOAH *   CLOUDY    21  16  79 CALM      30.42F
$$

IAZ047>049-059>061-072>074-084-221600-
   CENTRAL IOWA

CITY           SKY/WX    TMP DP  RH WIND       PRES   REMARKS
AMES           CLOUDY    20  14  77 CALM      30.40R
ANKENY *       CLOUDY    21  14  73 CALM      30.42R
BOONE *        CLOUDY    19  14  79 SW5       30.38R WCI  13
CHARITON *     CLOUDY    21  14  73 CALM      30.40R
DES MOINES     CLOUDY    21  13  71 SW5       30.41R WCI  15
GRINNELL*      CLOUDY    20  15  81 CALM      30.40R
KNOXVILLE *    CLOUDY    21  12  68 CALM      30.39S
MARSHALLTOWN   CLOUDY    19  14  81 W3        30.38R
NEWTON *       CLOUDY    19  14  79 W3        30.40S
PELLA *        CLOUDY    22  13  68 CALM      30.42R
PERRY *          N/A     21  14  73 S3        30.39S
$$

IAZ004>006-015-016-023>025-035-036-221600-
   NORTH CENTRAL IOWA

CITY           SKY/WX    TMP DP  RH WIND       PRES   REMARKS
ALGONA *       CLOUDY    19  14  79 SW7       30.33F WCI  10
CLARION *      CLOUDY    18  16  93 SW5       30.36S WCI  11
ESTHERVILLE    CLOUDY    17  12  80 S8        30.30F WCI   7
MASON CITY     CLOUDY    18  13  80 S3        30.36R
FOREST CITY *    N/A     19  14  79 S3        30.33F
WEBSTER CITY * CLOUDY    19  12  73 SW5       30.35S WCI  13
IOWA FALLS *     N/A     20  15  81 CALM      30.37R
$$

IAZ007>011-017>019-026>030-037>042-050>054-066-221600-
   NORTHEAST IOWA

CITY           SKY/WX    TMP DP  RH WIND       PRES   REMARKS
CEDAR RAPIDS   SUNNY     20  15  81 NW6       30.38R WCI  12
CHARLES CITY * CLOUDY    19  16  86 CALM      30.36S
CLINTON *      SUNNY     24  18  77 W6        30.39S WCI  17
DECORAH *      CLOUDY    18  12  79 CALM      30.34R
DUBUQUE        SUNNY     22  15  75 W3        30.36R
MONTICELLO *   SUNNY     21  16  79 VRB5      30.38R WCI  15
OELWEIN *      SUNNY     19  16  86 CALM      30.36S
WATERLOO       CLOUDY    20  13  74 W5        30.38S WCI  13
$$

IAZ064-065-067-068-078-221600-
   EAST CENTRAL IOWA

CITY           SKY/WX    TMP DP  RH WIND       PRES   REMARKS
DAVENPORT      SUNNY     21  16  81 W6        30.41S WCI  13
IOWA CITY      SUNNY     24  14  65 NW3       30.42R
MT. PLEASANT * SUNNY     23  15  70 NW5       30.40S WCI  17
MUSCATINE *    SUNNY     23  16  74 NW3       30.42S
QUAD CITIES    SUNNY     25  16  68 W5        30.39S WCI  19
$$

IAZ062-063-075>077-085>089-095>099-221600-
   SOUTHEAST IOWA

CITY           SKY/WX    TMP DP  RH WIND       PRES   REMARKS
BURLINGTON     SUNNY     24  17  74 NW3       30.40S
FAIRFIELD *    SUNNY     23  14  68 CALM      30.40S
FORT MADISON * SUNNY     23  18  80 NW3       30.41S
KEOKUK *       SUNNY     25  16  68 CALM      30.41R
OSKALOOSA *      N/A     22  15  76 W3        30.42R
OTTUMWA        SUNNY     22  14  71 W5        30.41R WCI  16
WASHINGTON *   SUNNY     23  18  80 CALM      30.42R
$$

ABBREVIATIONS USED IN REMARKS
   TC - TEMPERATURES IN CELSIUS
  WCI - WIND CHILL INDEX
   HX - HEAT INDEX
  VSB - VISIBILITY
$$





USA.gov is the U.S. government's official web portal to all federal, state and local government web resources and services.